CW6099 Weather Reports


Display with metric or nautical units.
time (UTC)temp
F
wind
direction
speed
MPH
gust
MPH
rain 1hr
in
rain 24hr
in
rain mn
in
humidity
%
barometer
mb
20260503035421 51 223 10.0 14.0 0.00 0.00 0.00 51 1016.3
20260503035313 51 215 10.0 14.0 0.00 0.00 0.00 51 1016.4
20260503034426 52 215 10.0 15.0 0.00 0.00 0.00 51 1016.3
20260503034318 52 204 10.0 15.0 0.00 0.00 0.00 51 1016.3
20260503033430 52 213 10.0 14.0 0.00 0.00 0.00 50 1016.3
20260503033323 52 220 11.0 12.0 0.00 0.00 0.00 50 1016.3
20260503032415 52 209 10.0 13.0 0.00 0.00 0.00 51 1016.3
20260503032347 52 217 10.0 13.0 0.00 0.00 0.00 52 1016.3
20260503031417 52 215 12.0 14.0 0.00 0.00 0.00 53 1016.4
20260503031334 52 196 12.0 14.0 0.00 0.00 0.00 53 1016.3
20260503030424 52 194 11.0 13.0 0.00 0.00 0.00 52 1016.3
20260503030317 52 196 11.0 12.0 0.00 0.00 0.00 52 1016.3
20260503025428 52 204 11.0 13.0 0.00 0.00 0.00 52 1016.3
20260503025320 52 200 10.0 13.0 0.00 0.00 0.00 51 1016.2
20260503024412 53 191 11.0 12.0 0.00 0.00 0.00 51 1016.1
20260503024322 53 183 10.0 13.0 0.00 0.00 0.00 51 1016.2
20260503023414 53 181 10.0 13.0 0.00 0.00 0.00 50 1016.1
20260503023312 53 198 10.0 11.0 0.00 0.00 0.00 50 1016.1
20260503022423 54 186 10.0 13.0 0.00 0.00 0.00 49 1016.1
20260503022316 54 196 10.0 13.0 0.00 0.00 0.00 49 1016.1
20260503021425 54 186 10.0 11.0 0.00 0.00 0.00 48 1016.1
20260503021317 55 185 10.0 12.0 0.00 0.00 0.00 48 1016.0
20260503020429 56 190 9.0 12.0 0.00 0.00 0.00 46 1016.0
20260503020321 56 196 9.0 12.0 0.00 0.00 0.00 46 1016.0
20260503015412 57 188 10.0 11.0 0.00 0.00 0.00 44 1016.0
20260503015346 57 182 10.0 12.0 0.00 0.00 0.00 44 1016.0
20260503014421 59 183 9.0 12.0 0.00 0.00 0.00 42 1015.8
20260503014314 59 196 9.0 11.0 0.00 0.00 0.00 42 1015.8
20260503013425 61 201 8.0 10.0 0.00 0.00 0.00 40 1015.8
20260503013317 61 183 9.0 10.0 0.00 0.00 0.00 40 1015.8
20260503012428 64 187 7.0 9.0 0.00 0.00 0.00 36 1015.8
20260503012321 64 189 8.0 9.0 0.00 0.00 0.00 36 1015.8
20260503011413 66 176 6.0 10.0 0.00 0.00 0.00 33 1015.8
20260503011323 66 190 7.0 10.0 0.00 0.00 0.00 33 1015.8
20260503010420 68 190 7.0 9.0 0.00 0.00 0.00 32 1015.8
20260503010310 68 193 7.0 9.0 0.00 0.00 0.00 31 1015.9
20260503005442 69 208 7.0 11.0 0.00 0.00 0.00 30 1015.8
20260503005314 69 196 6.0 11.0 0.00 0.00 0.00 30 1015.8
20260503004425 71 215 8.0 11.0 0.00 0.00 0.00 30 1015.8
20260503004318 71 224 7.0 11.0 0.00 0.00 0.00 29 1015.8
20260503003450 72 245 8.0 12.0 0.00 0.00 0.00 26 1015.8
20260503003323 72 189 7.0 12.0 0.00 0.00 0.00 27 1015.8
20260503002411 72 225 4.0 11.0 0.00 0.00 0.00 27 1015.9
20260503002325 72 219 4.0 12.0 0.00 0.00 0.00 27 1015.9
20260503001421 72 225 7.0 14.0 0.00 0.00 0.00 26 1016.0
20260503001333 72 220 7.0 13.0 0.00 0.00 0.00 27 1016.1
20260503000423 73 207 14.0 19.0 0.00 0.00 0.00 25 1016.0
20260503000318 73 240 15.0 19.0 0.00 0.00 0.00 25 1016.0
20260502235427 73 217 6.0 11.0 0.00 0.00 0.00 26 1016.2
20260502235320 73 198 5.0 11.0 0.00 0.00 0.00 26 1016.1
20260502234409 74 233 8.0 12.0 0.00 0.00 0.00 26 1016.3
20260502234322 74 232 9.0 14.0 0.00 0.00 0.00 26 1016.2
20260502233434 74 238 5.0 17.0 0.00 0.00 0.00 26 1016.3
20260502233324 74 205 5.0 17.0 0.00 0.00 0.00 26 1016.3
20260502232436 75 267 5.0 13.0 0.00 0.00 0.00 27 1016.3
20260502232312 75 283 5.0 13.0 0.00 0.00 0.00 27 1016.3
20260502231424 74 288 6.0 14.0 0.00 0.00 0.00 26 1016.4
20260502231315 74 217 8.0 14.0 0.00 0.00 0.00 26 1016.4
20260502230447 74 207 7.0 14.0 0.00 0.00 0.00 26 1016.4
20260502230338 74 200 7.0 14.0 0.00 0.00 0.00 25 1016.4
20260502225427 75 261 9.0 15.0 0.00 0.00 0.00 27 1016.5
20260502225318 75 265 8.0 15.0 0.00 0.00 0.00 26 1016.5
20260502224427 75 235 8.0 15.0 0.00 0.00 0.00 26 1016.5
20260502224320 75 228 10.0 15.0 0.00 0.00 0.00 28 1016.5
20260502223416 74 232 7.0 15.0 0.00 0.00 0.00 26 1016.6
20260502223330 74 219 7.0 15.0 0.00 0.00 0.00 26 1016.6
20260502222420 74 191 7.0 17.0 0.00 0.00 0.00 27 1016.7
20260502222312 74 207 8.0 17.0 0.00 0.00 0.00 29 1016.7
20260502221444 74 182 7.0 13.0 0.00 0.00 0.00 29 1016.7
20260502221316 74 203 8.0 15.0 0.00 0.00 0.00 27 1016.8
20260502220448 74 240 12.0 16.0 0.00 0.00 0.00 28 1017.0
20260502220319 74 217 10.0 16.0 0.00 0.00 0.00 28 1017.0
20260502215414 75 304 7.0 16.0 0.00 0.00 0.00 29 1017.1
20260502215311 75 311 6.0 16.0 0.00 0.00 0.00 29 1017.1
20260502214422 74 245 11.0 17.0 0.00 0.00 0.00 29 1017.4
20260502214315 74 213 10.0 17.0 0.00 0.00 0.00 29 1017.4
20260502213426 73 232 10.0 17.0 0.00 0.00 0.00 28 1017.6
20260502213319 73 202 8.0 18.0 0.00 0.00 0.00 30 1017.6
20260502212411 73 205 9.0 12.0 0.00 0.00 0.00 31 1017.8
20260502212324 73 245 8.0 13.0 0.00 0.00 0.00 30 1017.8
20260502211416 74 246 7.0 15.0 0.00 0.00 0.00 32 1018.2
20260502211313 74 241 8.0 15.0 0.00 0.00 0.00 31 1018.2
20260502210423 72 221 4.0 10.0 0.00 0.00 0.00 32 1018.3
20260502210316 72 209 4.0 10.0 0.00 0.00 0.00 32 1018.3
20260502205425 72 228 10.0 16.0 0.00 0.00 0.00 32 1018.5
20260502205316 72 245 13.0 16.0 0.00 0.00 0.00 32 1018.5
20260502204429 72 240 4.0 15.0 0.00 0.00 0.00 30 1018.7
20260502204322 72 223 4.0 15.0 0.00 0.00 0.00 31 1018.7
20260502203413 72 262 7.0 13.0 0.00 0.00 0.00 32 1018.8
20260502203347 72 261 6.0 13.0 0.00 0.00 0.00 30 1018.8
20260502202414 72 250 10.0 14.0 0.00 0.00 0.00 31 1018.9
20260502202351 72 251 9.0 14.0 0.00 0.00 0.00 34 1019.0
20260502201420 70 196 2.0 5.0 0.00 0.00 0.00 34 1019.1
20260502201312 70 223 2.0 9.0 0.00 0.00 0.00 33 1019.0
20260502200425 71 190 8.0 14.0 0.00 0.00 0.00 33 1019.2
20260502200317 71 235 9.0 14.0 0.00 0.00 0.00 33 1019.2
20260502195429 71 205 3.0 18.0 0.00 0.00 0.00 34 1019.4
20260502195322 71 303 5.0 18.0 0.00 0.00 0.00 35 1019.3
20260502194414 70 247 7.0 15.0 0.00 0.00 0.00 35 1019.4
20260502194311 69 199 5.0 11.0 0.00 0.00 0.00 35 1019.5
20260502193422 68 246 2.0 9.0 0.00 0.00 0.00 39 1019.6
20260502193316 68 47 4.0 9.0 0.00 0.00 0.00 39 1019.6
20260502192427 69 190 8.0 17.0 0.00 0.00 0.00 38 1019.8
20260502192320 69 220 6.0 17.0 0.00 0.00 0.00 38 1019.8
20260502191412 68 226 4.0 13.0 0.00 0.00 0.00 39 1019.9
20260502191325 68 286 7.0 13.0 0.00 0.00 0.00 39 1020.0
20260502190415 67 198 8.0 16.0 0.00 0.00 0.00 38 1020.0
20260502190328 67 271 9.0 16.0 0.00 0.00 0.00 38 1020.1
20260502185441 66 211 4.0 10.0 0.00 0.00 0.00 40 1020.3
20260502185315 66 200 4.0 10.0 0.00 0.00 0.00 40 1020.3
20260502184447 65 220 2.0 10.0 0.00 0.00 0.00 42 1020.4
20260502184318 65 164 3.0 10.0 0.00 0.00 0.00 42 1020.4
20260502183430 65 189 7.0 15.0 0.00 0.00 0.00 44 1020.6
20260502183322 65 191 8.0 15.0 0.00 0.00 0.00 42 1020.6
20260502182415 65 197 10.0 13.0 0.00 0.00 0.00 44 1020.7
20260502182329 65 179 10.0 15.0 0.00 0.00 0.00 46 1020.7
20260502181420 64 142 4.0 12.0 0.00 0.00 0.00 47 1020.9
20260502181312 64 144 3.0 12.0 0.00 0.00 0.00 47 1020.9
20260502180417 63 171 2.0 13.0 0.00 0.00 0.00 49 1021.0
20260502180313 63 149 3.0 13.0 0.00 0.00 0.00 46 1021.1
20260502170429 60 178 7.0 13.0 0.00 0.00 0.00 52 1021.8
20260502170322 60 176 8.0 13.0 0.00 0.00 0.00 54 1021.8
20260502164332 59 148 8.0 14.0 0.00 0.00 0.00 57 1021.7
20260502163421 58 189 8.0 14.0 0.00 0.00 0.00 57 1021.8
20260502163314 58 165 5.0 14.0 0.00 0.00 0.00 57 1021.8
20260502162425 57 159 7.0 14.0 0.00 0.00 0.00 59 1021.8
20260502162316 57 151 9.0 14.0 0.00 0.00 0.00 59 1021.9
20260502161429 56 175 9.0 12.0 0.00 0.00 0.00 62 1021.8
20260502161323 56 169 10.0 12.0 0.00 0.00 0.00 62 1021.8
20260502160414 55 139 7.0 12.0 0.00 0.00 0.00 64 1021.9
20260502160312 55 111 7.0 12.0 0.00 0.00 0.00 65 1021.9
20260502151419 52 144 6.0 10.0 0.00 0.00 0.00 73 1022.2
20260502151332 52 165 6.0 10.0 0.00 0.00 0.00 73 1022.2
20260502150422 51 157 2.0 8.0 0.00 0.00 0.00 74 1022.2
20260502150316 51 102 3.0 8.0 0.00 0.00 0.00 75 1022.2
20260502130416 36 340 4.0 6.0 0.00 0.00 0.00 99 1021.7
20260502130327 36 333 4.0 6.0 0.00 0.00 0.00 99 1021.7
20260502123408 33 328 4.0 6.0 0.00 0.00 0.00 98 1021.4
20260502123322 33 336 4.0 6.0 0.00 0.00 0.00 98 1021.3
20260502122414 32 302 5.0 8.0 0.00 0.00 0.00 97 1021.3
20260502122324 32 331 5.0 8.0 0.00 0.00 0.00 97 1021.3
20260502121435 32 288 7.0 8.0 0.00 0.00 0.00 97 1021.2
20260502121347 32 292 7.0 8.0 0.00 0.00 0.00 97 1021.3
20260502120437 32 296 4.0 5.0 0.00 0.00 0.00 97 1021.2
20260502120313 32 304 4.0 5.0 0.00 0.00 0.00 97 1021.2
20260502115424 32 325 4.0 5.0 0.00 0.00 0.00 96 1021.2
20260502115316 32 327 4.0 5.0 0.00 0.00 0.00 96 1021.2
20260502114448 32 333 5.0 5.0 0.00 0.00 0.00 96 1021.1
20260502114339 32 323 4.0 5.0 0.00 0.00 0.00 96 1021.1
20260502113410 33 350 4.0 6.0 0.00 0.00 0.00 97 1021.1
20260502113324 33 349 4.0 6.0 0.00 0.00 0.00 97 1021.0
20260502112414 33 331 5.0 8.0 0.00 0.00 0.00 96 1021.0
20260502112327 33 342 5.0 8.0 0.00 0.00 0.00 96 1020.9
20260502111416 33 10 3.0 6.0 0.00 0.00 0.00 97 1020.9
20260502111313 33 355 4.0 6.0 0.00 0.00 0.00 97 1020.9
20260502110423 33 13 5.0 8.0 0.00 0.00 0.00 96 1020.9
20260502110315 33 355 5.0 8.0 0.00 0.00 0.00 96 1020.9
20260502105427 33 355 5.0 8.0 0.00 0.00 0.00 97 1020.9
20260502105320 33 355 5.0 8.0 0.00 0.00 0.00 97 1020.9
20260502104412 33 355 3.0 5.0 0.00 0.00 0.00 96 1021.0
20260502104323 33 332 3.0 5.0 0.00 0.00 0.00 96 1020.9
20260502103415 33 360 3.0 6.0 0.00 0.00 0.00 97 1020.9
20260502103311 33 355 4.0 6.0 0.00 0.00 0.00 97 1020.8
20260502102440 33 350 5.0 9.0 0.00 0.00 0.00 96 1020.8
20260502102312 33 355 5.0 9.0 0.00 0.00 0.00 96 1020.8
20260502101423 34 9 3.0 8.0 0.00 0.00 0.00 97 1020.7
20260502101316 34 26 4.0 8.0 0.00 0.00 0.00 97 1020.7
20260502100427 33 10 4.0 8.0 0.00 0.00 0.00 96 1020.7
20260502100319 33 360 3.0 8.0 0.00 0.00 0.00 96 1020.7
20260502091412 35 12 3.0 6.0 0.00 0.00 0.00 95 1020.1
20260502091309 35 46 3.0 6.0 0.00 0.00 0.00 95 1020.1
20260502090420 35 44 4.0 8.0 0.00 0.00 0.00 95 1020.1
20260502090314 35 22 4.0 8.0 0.00 0.00 0.00 95 1020.1
20260502071409 39 164 6.0 7.0 0.00 0.00 0.00 94 1019.9
20260502071321 39 159 6.0 7.0 0.00 0.00 0.00 94 1019.9
20260502070413 39 165 6.0 9.0 0.00 0.00 0.00 93 1020.0
20260502070326 39 188 6.0 8.0 0.00 0.00 0.00 93 1020.0
20260502065417 39 165 7.0 10.0 0.00 0.00 0.00 93 1019.9
20260502065314 39 169 7.0 10.0 0.00 0.00 0.00 93 1019.9
20260502064426 38 158 7.0 8.0 0.00 0.00 0.00 92 1020.0
20260502064338 38 159 7.0 8.0 0.00 0.00 0.00 92 1020.1
20260502063408 38 159 6.0 8.0 0.00 0.00 0.00 90 1020.1
20260502063323 38 158 6.0 8.0 0.00 0.00 0.00 90 1020.1
20260502062434 39 141 7.0 10.0 0.00 0.00 0.00 90 1020.1
20260502062346 39 142 7.0 10.0 0.00 0.00 0.00 90 1020.1
20260502061325 40 132 8.0 11.0 0.00 0.00 0.00 90 1020.0
20260502060415 40 142 8.0 9.0 0.00 0.00 0.00 89 1020.0
20260502060311 40 146 7.0 9.0 0.00 0.00 0.00 89 1020.1
20260502055437 40 155 6.0 9.0 0.00 0.00 0.00 88 1020.0
20260502055313 40 146 5.0 9.0 0.00 0.00 0.00 88 1020.0
20260502054426 41 135 3.0 8.0 0.00 0.00 0.00 87 1020.0
20260502054319 41 153 3.0 8.0 0.00 0.00 0.00 87 1020.0
20260502053410 41 83 6.0 8.0 0.00 0.00 0.00 87 1020.0
20260502053325 42 91 6.0 8.0 0.00 0.00 0.00 87 1020.0
20260502052416 42 40 4.0 9.0 0.00 0.00 0.00 87 1019.9
20260502052328 42 360 4.0 9.0 0.00 0.00 0.00 86 1020.0
20260502051420 42 103 5.0 9.0 0.00 0.00 0.00 86 1019.8
20260502051317 42 183 5.0 9.0 0.00 0.00 0.00 86 1019.8
20260502050409 42 159 4.0 8.0 0.00 0.00 0.00 85 1019.7
20260502050342 42 146 4.0 8.0 0.00 0.00 0.00 85 1019.7
20260502045414 42 138 4.0 8.0 0.00 0.00 0.00 84 1019.6
20260502045327 42 88 4.0 8.0 0.00 0.00 0.00 84 1019.6
20260502044419 43 160 4.0 9.0 0.00 0.00 0.00 84 1019.5
20260502044311 43 42 4.0 9.0 0.00 0.00 0.00 84 1019.5
20260502043424 43 43 4.0 7.0 0.00 0.00 0.00 83 1019.4
20260502043320 43 171 4.0 7.0 0.00 0.00 0.00 83 1019.4
20260502042410 44 220 4.0 9.0 0.00 0.00 0.00 81 1019.3
20260502042323 44 157 5.0 9.0 0.00 0.00 0.00 80 1019.3
20260502041415 45 355 3.0 7.0 0.00 0.00 0.00 78 1019.3
20260502041325 45 108 3.0 7.0 0.00 0.00 0.00 78 1019.3
20260502040416 46 157 5.0 9.0 0.00 0.00 0.00 77 1019.2
20260502040328 46 63 5.0 9.0 0.00 0.00 0.00 77 1019.2